| time (UTC) | temp C | wind direction | speed KPH | gust KPH | rain 1hr cm | rain 24hr cm | rain mn cm | humidity % | barometer mb |
| 20260507125032 | 7 | 158 | 0.0 | 0.0 | 0.00 | 0.00 | 0.00 | 94 | 1018.9 |
| 20260507124528 | 7 | 160 | 0.0 | 0.0 | 0.00 | 0.00 | 0.00 | 96 | 1018.9 |
| 20260507124026 | 7 | 160 | 0.0 | 0.0 | 0.00 | 0.00 | 0.00 | 97 | 1019.1 |
| 20260507123524 | 6 | 164 | 0.0 | 0.0 | 0.00 | 0.00 | 0.00 | 97 | 1018.9 |
| 20260507123021 | 6 | 170 | 0.0 | 0.0 | 0.00 | 0.00 | 0.00 | 97 | 1019.0 |
| 20260507122516 | 6 | 170 | 0.0 | 0.0 | 0.00 | 0.00 | 0.00 | 97 | 1018.9 |
| 20260507122013 | 6 | 172 | 0.0 | 0.0 | 0.00 | 0.00 | 0.00 | 97 | 1018.6 |
| 20260507121509 | 5 | 172 | 0.0 | 0.0 | 0.00 | 0.00 | 0.00 | 97 | 1018.6 |
| 20260507121004 | 5 | 172 | 0.0 | 0.0 | 0.00 | 0.00 | 0.00 | 97 | 1018.6 |
| 20260507120501 | 5 | 172 | 0.0 | 0.0 | 0.00 | 0.00 | 0.00 | 97 | 1018.7 |
| 20260507115957 | 5 | 143 | 0.0 | 0.0 | 0.00 | 0.00 | 0.00 | 97 | 1018.5 |
| 20260507115454 | 5 | 143 | 0.0 | 0.0 | 0.00 | 0.00 | 0.00 | 97 | 1018.5 |
| 20260507114949 | 5 | 143 | 0.0 | 0.0 | 0.00 | 0.00 | 0.00 | 97 | 1018.5 |
| 20260507114445 | 5 | 143 | 0.0 | 0.0 | 0.00 | 0.00 | 0.00 | 97 | 1018.3 |
| 20260507113943 | 5 | 143 | 0.0 | 0.0 | 0.00 | 0.00 | 0.00 | 97 | 1018.3 |
| 20260507113439 | 5 | 143 | 0.0 | 0.0 | 0.00 | 0.00 | 0.00 | 97 | 1018.1 |
| 20260507112937 | 5 | 143 | 0.0 | 0.0 | 0.00 | 0.00 | 0.00 | 97 | 1018.1 |
| 20260507112435 | 5 | 143 | 0.0 | 0.0 | 0.00 | 0.00 | 0.00 | 97 | 1018.5 |
| 20260507111931 | 5 | 143 | 0.0 | 0.0 | 0.00 | 0.00 | 0.00 | 97 | 1018.3 |
| 20260507111429 | 5 | 143 | 0.0 | 0.0 | 0.00 | 0.00 | 0.00 | 97 | 1018.3 |
| 20260507110925 | 5 | 142 | 0.0 | 0.0 | 0.00 | 0.00 | 0.00 | 96 | 1018.2 |
| 20260507110421 | 5 | 143 | 0.0 | 0.0 | 0.00 | 0.00 | 0.00 | 96 | 1018.1 |
| 20260507105918 | 5 | 143 | 0.0 | 0.0 | 0.00 | 0.00 | 0.00 | 96 | 1017.9 |
| 20260507105414 | 5 | 143 | 0.0 | 0.0 | 0.00 | 0.00 | 0.00 | 96 | 1017.9 |
| 20260507104911 | 5 | 143 | 0.0 | 0.0 | 0.00 | 0.00 | 0.00 | 96 | 1018.0 |
| 20260507104408 | 5 | 176 | 0.0 | 0.0 | 0.00 | 0.00 | 0.00 | 96 | 1017.9 |
| 20260507103904 | 5 | 177 | 0.0 | 0.0 | 0.00 | 0.00 | 0.00 | 96 | 1018.1 |
| 20260507103401 | 5 | 190 | 0.0 | 0.0 | 0.00 | 0.00 | 0.00 | 96 | 1018.1 |
| 20260507102857 | 5 | 187 | 1.6 | 1.6 | 0.00 | 0.00 | 0.00 | 96 | 1018.0 |
| 20260507102353 | 5 | 164 | 0.0 | 0.0 | 0.00 | 0.00 | 0.00 | 96 | 1018.0 |
| 20260507101850 | 5 | 164 | 0.0 | 0.0 | 0.00 | 0.00 | 0.00 | 96 | 1018.0 |
| 20260507101345 | 5 | 164 | 0.0 | 0.0 | 0.00 | 0.00 | 0.00 | 96 | 1017.9 |
| 20260507100842 | 5 | 164 | 0.0 | 0.0 | 0.00 | 0.00 | 0.00 | 96 | 1018.0 |
| 20260507100341 | 5 | 173 | 0.0 | 0.0 | 0.00 | 0.00 | 0.00 | 95 | 1018.2 |
| 20260507095838 | 5 | 165 | 1.6 | 1.6 | 0.00 | 0.00 | 0.00 | 95 | 1017.9 |
| 20260507095334 | 5 | 165 | 0.0 | 0.0 | 0.00 | 0.00 | 0.00 | 95 | 1017.8 |
| 20260507094832 | 5 | 165 | 0.0 | 0.0 | 0.00 | 0.00 | 0.00 | 95 | 1017.9 |
| 20260507094328 | 5 | 165 | 0.0 | 0.0 | 0.00 | 0.00 | 0.00 | 95 | 1017.9 |
| 20260507093825 | 5 | 165 | 0.0 | 0.0 | 0.00 | 0.00 | 0.00 | 95 | 1017.8 |
| 20260507093324 | 5 | 165 | 0.0 | 0.0 | 0.00 | 0.00 | 0.00 | 95 | 1018.0 |
| 20260507092821 | 5 | 162 | 1.6 | 1.6 | 0.00 | 0.00 | 0.00 | 94 | 1018.0 |
| 20260507092318 | 5 | 111 | 1.6 | 1.6 | 0.00 | 0.00 | 0.00 | 94 | 1017.8 |
| 20260507091814 | 5 | 110 | 0.0 | 0.0 | 0.00 | 0.00 | 0.00 | 94 | 1017.8 |
| 20260507091310 | 5 | 110 | 0.0 | 0.0 | 0.00 | 0.00 | 0.00 | 94 | 1018.0 |
| 20260507090805 | 6 | 110 | 0.0 | 0.0 | 0.00 | 0.00 | 0.00 | 94 | 1018.2 |
| 20260507090302 | 6 | 110 | 0.0 | 0.0 | 0.00 | 0.00 | 0.00 | 94 | 1018.2 |
| 20260507085759 | 6 | 110 | 0.0 | 0.0 | 0.00 | 0.00 | 0.00 | 94 | 1018.3 |
| 20260507085256 | 6 | 110 | 0.0 | 0.0 | 0.00 | 0.00 | 0.00 | 94 | 1018.2 |
| 20260507084754 | 6 | 110 | 0.0 | 0.0 | 0.00 | 0.00 | 0.00 | 94 | 1018.5 |
| 20260507084249 | 6 | 110 | 0.0 | 0.0 | 0.00 | 0.00 | 0.00 | 94 | 1018.5 |
| 20260507083747 | 6 | 110 | 0.0 | 0.0 | 0.00 | 0.00 | 0.00 | 93 | 1018.5 |
| 20260507083244 | 6 | 110 | 0.0 | 0.0 | 0.00 | 0.00 | 0.00 | 93 | 1018.3 |
| 20260507082740 | 6 | 110 | 0.0 | 0.0 | 0.00 | 0.00 | 0.00 | 93 | 1018.1 |
| 20260507082236 | 6 | 110 | 0.0 | 0.0 | 0.00 | 0.00 | 0.00 | 94 | 1018.1 |
| 20260507081733 | 6 | 109 | 0.0 | 0.0 | 0.00 | 0.00 | 0.00 | 94 | 1018.2 |
| 20260507081229 | 6 | 109 | 0.0 | 0.0 | 0.00 | 0.00 | 0.00 | 94 | 1018.6 |
| 20260507080726 | 6 | 110 | 0.0 | 0.0 | 0.00 | 0.00 | 0.00 | 94 | 1018.6 |
| 20260507080222 | 6 | 109 | 0.0 | 0.0 | 0.00 | 0.00 | 0.00 | 93 | 1018.3 |
| 20260507075717 | 6 | 110 | 0.0 | 0.0 | 0.00 | 0.00 | 0.00 | 93 | 1018.0 |
| 20260507075214 | 6 | 110 | 0.0 | 0.0 | 0.00 | 0.00 | 0.00 | 93 | 1018.1 |
| 20260507074710 | 6 | 110 | 0.0 | 0.0 | 0.00 | 0.00 | 0.00 | 92 | 1018.1 |
| 20260507074209 | 6 | 110 | 0.0 | 0.0 | 0.00 | 0.00 | 0.00 | 92 | 1018.2 |
| 20260507073705 | 6 | 110 | 0.0 | 0.0 | 0.00 | 0.00 | 0.00 | 92 | 1018.0 |
| 20260507073201 | 6 | 110 | 0.0 | 0.0 | 0.00 | 0.00 | 0.00 | 92 | 1018.3 |
| 20260507072659 | 6 | 110 | 0.0 | 0.0 | 0.00 | 0.00 | 0.00 | 91 | 1018.3 |
| 20260507072156 | 6 | 110 | 0.0 | 0.0 | 0.00 | 0.00 | 0.00 | 91 | 1018.1 |
| 20260507071654 | 6 | 110 | 0.0 | 0.0 | 0.00 | 0.00 | 0.00 | 90 | 1018.2 |
| 20260507071149 | 6 | 110 | 0.0 | 0.0 | 0.00 | 0.00 | 0.00 | 90 | 1018.2 |
| 20260507070647 | 6 | 110 | 0.0 | 0.0 | 0.00 | 0.00 | 0.00 | 90 | 1018.3 |
| 20260507070143 | 6 | 110 | 0.0 | 0.0 | 0.00 | 0.00 | 0.00 | 89 | 1018.3 |
| 20260507065640 | 6 | 110 | 0.0 | 0.0 | 0.00 | 0.00 | 0.00 | 88 | 1018.3 |
| 20260507065137 | 7 | 110 | 0.0 | 0.0 | 0.00 | 0.00 | 0.00 | 88 | 1018.5 |
| 20260507064634 | 7 | 110 | 0.0 | 0.0 | 0.00 | 0.00 | 0.00 | 87 | 1018.3 |
| 20260507064133 | 7 | 110 | 0.0 | 0.0 | 0.00 | 0.00 | 0.00 | 86 | 1018.1 |
| 20260507063630 | 7 | 110 | 0.0 | 0.0 | 0.00 | 0.00 | 0.00 | 85 | 1018.3 |
| 20260507063127 | 7 | 110 | 0.0 | 0.0 | 0.00 | 0.00 | 0.00 | 83 | 1018.2 |
| 20260507062624 | 8 | 110 | 0.0 | 0.0 | 0.00 | 0.00 | 0.00 | 83 | 1017.9 |
| 20260507062121 | 8 | 110 | 0.0 | 0.0 | 0.00 | 0.00 | 0.00 | 80 | 1018.0 |
| 20260507061619 | 8 | 110 | 0.0 | 0.0 | 0.00 | 0.00 | 0.00 | 79 | 1018.2 |
| 20260507061117 | 8 | 109 | 0.0 | 0.0 | 0.00 | 0.00 | 0.00 | 77 | 1017.9 |
| 20260507060615 | 9 | 86 | 0.0 | 0.0 | 0.00 | 0.00 | 0.00 | 77 | 1018.2 |
| 20260507060111 | 9 | 86 | 0.0 | 0.0 | 0.00 | 0.00 | 0.00 | 76 | 1018.2 |
| 20260507055606 | 9 | 86 | 0.0 | 0.0 | 0.00 | 0.00 | 0.00 | 75 | 1018.1 |
| 20260507055103 | 10 | 86 | 0.0 | 0.0 | 0.00 | 0.00 | 0.00 | 74 | 1018.1 |
| 20260507054559 | 10 | 91 | 0.0 | 0.0 | 0.00 | 0.00 | 0.00 | 74 | 1018.1 |
| 20260507054056 | 10 | 87 | 0.0 | 1.6 | 0.00 | 0.00 | 0.00 | 73 | 1018.1 |
| 20260507053554 | 10 | 74 | 0.0 | 1.6 | 0.00 | 0.00 | 0.00 | 73 | 1018.1 |
| 20260507053052 | 10 | 70 | 0.0 | 0.0 | 0.00 | 0.00 | 0.00 | 72 | 1018.3 |
| 20260507052550 | 10 | 68 | 0.0 | 0.0 | 0.00 | 0.00 | 0.00 | 72 | 1018.0 |
| 20260507052046 | 10 | 85 | 0.0 | 0.0 | 0.00 | 0.00 | 0.00 | 71 | 1017.8 |
| 20260507051544 | 10 | 54 | 1.6 | 1.6 | 0.00 | 0.00 | 0.00 | 71 | 1017.9 |
| 20260507051040 | 10 | 68 | 0.0 | 1.6 | 0.00 | 0.00 | 0.00 | 72 | 1017.8 |
| 20260507050537 | 10 | 71 | 0.0 | 0.0 | 0.00 | 0.00 | 0.00 | 74 | 1017.8 |
| 20260507050033 | 10 | 46 | 1.6 | 3.2 | 0.00 | 0.00 | 0.00 | 75 | 1018.0 |
| 20260507045530 | 10 | 97 | 0.0 | 0.0 | 0.00 | 0.00 | 0.00 | 75 | 1017.9 |
| 20260507045027 | 10 | 107 | 0.0 | 0.0 | 0.00 | 0.00 | 0.00 | 75 | 1017.8 |
| 20260507044524 | 10 | 98 | 0.0 | 0.0 | 0.00 | 0.00 | 0.00 | 74 | 1017.8 |
| 20260507044021 | 10 | 103 | 0.0 | 0.0 | 0.00 | 0.00 | 0.00 | 73 | 1018.0 |
| 20260507043517 | 10 | 115 | 0.0 | 0.0 | 0.00 | 0.00 | 0.00 | 73 | 1018.0 |
| 20260507043014 | 10 | 99 | 0.0 | 0.0 | 0.00 | 0.00 | 0.00 | 72 | 1017.8 |
| 20260507042510 | 10 | 87 | 0.0 | 0.0 | 0.00 | 0.00 | 0.00 | 72 | 1018.0 |
| 20260507042006 | 10 | 86 | 0.0 | 0.0 | 0.00 | 0.00 | 0.00 | 72 | 1017.7 |
| 20260507041503 | 10 | 85 | 0.0 | 0.0 | 0.00 | 0.00 | 0.00 | 71 | 1017.8 |
| 20260507041000 | 11 | 83 | 1.6 | 1.6 | 0.00 | 0.00 | 0.00 | 70 | 1017.8 |
| 20260507040455 | 11 | 83 | 0.0 | 0.0 | 0.00 | 0.00 | 0.00 | 69 | 1017.8 |
| 20260507035951 | 11 | 87 | 0.0 | 0.0 | 0.00 | 0.00 | 0.00 | 69 | 1017.6 |
| 20260507035448 | 11 | 86 | 0.0 | 0.0 | 0.00 | 0.00 | 0.00 | 68 | 1017.8 |
| 20260507034945 | 11 | 90 | 0.0 | 0.0 | 0.00 | 0.00 | 0.00 | 67 | 1017.7 |
| 20260507034442 | 11 | 80 | 0.0 | 1.6 | 0.00 | 0.00 | 0.00 | 67 | 1017.8 |
| 20260507033940 | 11 | 12 | 1.6 | 3.2 | 0.00 | 0.00 | 0.00 | 66 | 1017.6 |
| 20260507033438 | 11 | 76 | 0.0 | 1.6 | 0.00 | 0.00 | 0.00 | 65 | 1017.4 |
| 20260507032934 | 12 | 84 | 1.6 | 3.2 | 0.00 | 0.00 | 0.00 | 65 | 1017.2 |
| 20260507032432 | 12 | 83 | 0.0 | 0.0 | 0.00 | 0.00 | 0.00 | 65 | 1017.5 |
| 20260507031927 | 12 | 65 | 1.6 | 1.6 | 0.00 | 0.00 | 0.00 | 64 | 1017.5 |
| 20260507031426 | 12 | 85 | 0.0 | 0.0 | 0.00 | 0.00 | 0.00 | 64 | 1017.4 |
| 20260507030921 | 12 | 72 | 0.0 | 1.6 | 0.00 | 0.00 | 0.00 | 63 | 1017.4 |
| 20260507030418 | 12 | 76 | 0.0 | 0.0 | 0.00 | 0.00 | 0.00 | 62 | 1017.5 |
| 20260507025915 | 12 | 77 | 0.0 | 1.6 | 0.00 | 0.00 | 0.00 | 62 | 1017.2 |
| 20260507025412 | 12 | 65 | 1.6 | 1.6 | 0.00 | 0.00 | 0.00 | 62 | 1017.3 |
| 20260507024910 | 12 | 29 | 1.6 | 3.2 | 0.00 | 0.00 | 0.00 | 62 | 1017.0 |
| 20260507024407 | 12 | 69 | 0.0 | 1.6 | 0.00 | 0.00 | 0.00 | 61 | 1017.2 |
| 20260507023903 | 12 | 352 | 3.2 | 4.8 | 0.00 | 0.00 | 0.00 | 61 | 1017.2 |
| 20260507023400 | 13 | 42 | 1.6 | 1.6 | 0.00 | 0.00 | 0.00 | 60 | 1017.2 |
| 20260507022857 | 13 | 76 | 1.6 | 1.6 | 0.00 | 0.00 | 0.00 | 60 | 1017.3 |
| 20260507022354 | 13 | 72 | 1.6 | 3.2 | 0.00 | 0.00 | 0.00 | 60 | 1016.9 |
| 20260507021850 | 13 | 49 | 3.2 | 4.8 | 0.00 | 0.00 | 0.00 | 60 | 1017.0 |
| 20260507021345 | 13 | 86 | 0.0 | 1.6 | 0.00 | 0.00 | 0.00 | 60 | 1017.0 |
| 20260507020843 | 13 | 350 | 1.6 | 3.2 | 0.00 | 0.00 | 0.00 | 59 | 1016.9 |
| 20260507020339 | 13 | 69 | 1.6 | 1.6 | 0.00 | 0.00 | 0.00 | 59 | 1016.8 |
| 20260507015837 | 13 | 85 | 0.0 | 0.0 | 0.00 | 0.00 | 0.00 | 60 | 1016.7 |
| 20260507015335 | 13 | 37 | 1.6 | 3.2 | 0.00 | 0.00 | 0.00 | 58 | 1016.7 |
| 20260507014831 | 13 | 92 | 0.0 | 0.0 | 0.00 | 0.00 | 0.00 | 58 | 1016.6 |
| 20260507014327 | 13 | 88 | 0.0 | 0.0 | 0.00 | 0.00 | 0.00 | 58 | 1016.6 |
| 20260507013824 | 13 | 96 | 0.0 | 0.0 | 0.00 | 0.00 | 0.00 | 57 | 1016.3 |
| 20260507013321 | 14 | 87 | 0.0 | 0.0 | 0.00 | 0.00 | 0.00 | 57 | 1016.2 |
| 20260507012819 | 14 | 81 | 0.0 | 0.0 | 0.00 | 0.00 | 0.00 | 56 | 1016.3 |
| 20260507012314 | 14 | 98 | 0.0 | 0.0 | 0.00 | 0.00 | 0.00 | 56 | 1016.2 |
| 20260507011811 | 15 | 68 | 0.0 | 1.6 | 0.00 | 0.00 | 0.00 | 56 | 1016.3 |
| 20260507011308 | 15 | 189 | 1.6 | 3.2 | 0.00 | 0.00 | 0.00 | 54 | 1016.3 |
| 20260507010808 | 15 | 48 | 3.2 | 3.2 | 0.00 | 0.00 | 0.00 | 54 | 1016.1 |
| 20260507010304 | 15 | 81 | 0.0 | 1.6 | 0.00 | 0.00 | 0.00 | 55 | 1016.1 |
| 20260507005801 | 15 | 160 | 3.2 | 3.2 | 0.00 | 0.00 | 0.00 | 55 | 1016.0 |
| 20260507005257 | 15 | 116 | 1.6 | 1.6 | 0.00 | 0.00 | 0.00 | 54 | 1016.0 |
| 20260507004754 | 16 | 89 | 0.0 | 0.0 | 0.00 | 0.00 | 0.00 | 53 | 1016.2 |
| 20260507004252 | 16 | 149 | 0.0 | 0.0 | 0.00 | 0.00 | 0.00 | 52 | 1016.0 |
| 20260507003748 | 16 | 30 | 1.6 | 4.8 | 0.00 | 0.00 | 0.00 | 49 | 1015.9 |
| 20260507003243 | 17 | 96 | 0.0 | 0.0 | 0.00 | 0.00 | 0.00 | 49 | 1015.8 |
| 20260507002739 | 17 | 64 | 1.6 | 3.2 | 0.00 | 0.00 | 0.00 | 48 | 1015.9 |
| 20260507002236 | 17 | 6 | 1.6 | 3.2 | 0.00 | 0.00 | 0.00 | 47 | 1015.8 |
| 20260507001732 | 17 | 188 | 1.6 | 3.2 | 0.00 | 0.00 | 0.00 | 48 | 1015.6 |
| 20260507001230 | 17 | 179 | 3.2 | 3.2 | 0.00 | 0.00 | 0.00 | 47 | 1015.7 |
| 20260507000726 | 17 | 114 | 0.0 | 0.0 | 0.00 | 0.00 | 0.00 | 47 | 1015.6 |
| 20260507000222 | 17 | 51 | 1.6 | 1.6 | 0.00 | 0.00 | 0.00 | 46 | 1015.7 |
| 20260506235719 | 17 | 169 | 0.0 | 3.2 | 0.00 | 0.00 | 0.00 | 46 | 1015.7 |
| 20260506235214 | 17 | 122 | 4.8 | 6.4 | 0.00 | 0.00 | 0.00 | 45 | 1015.8 |
| 20260506234711 | 17 | 148 | 1.6 | 3.2 | 0.00 | 0.00 | 0.00 | 46 | 1015.6 |
| 20260506234209 | 17 | 82 | 3.2 | 3.2 | 0.00 | 0.00 | 0.00 | 46 | 1015.5 |
| 20260506233706 | 17 | 42 | 6.4 | 9.7 | 0.00 | 0.00 | 0.00 | 46 | 1015.6 |
| 20260506233202 | 17 | 75 | 1.6 | 1.6 | 0.00 | 0.00 | 0.00 | 47 | 1015.6 |
| 20260506232659 | 17 | 89 | 3.2 | 4.8 | 0.00 | 0.00 | 0.00 | 47 | 1015.6 |
| 20260506232154 | 17 | 74 | 3.2 | 4.8 | 0.00 | 0.00 | 0.00 | 47 | 1015.5 |
| 20260506231651 | 17 | 187 | 3.2 | 3.2 | 0.00 | 0.00 | 0.00 | 47 | 1015.5 |
| 20260506231150 | 17 | 179 | 4.8 | 9.7 | 0.00 | 0.00 | 0.00 | 46 | 1015.3 |
| 20260506230646 | 17 | 9 | 3.2 | 6.4 | 0.00 | 0.00 | 0.00 | 47 | 1015.3 |
| 20260506230143 | 17 | 129 | 3.2 | 6.4 | 0.00 | 0.00 | 0.00 | 49 | 1015.2 |
| 20260506225640 | 17 | 155 | 3.2 | 4.8 | 0.00 | 0.00 | 0.00 | 48 | 1015.2 |
| 20260506225137 | 17 | 147 | 9.7 | 11.3 | 0.00 | 0.00 | 0.00 | 47 | 1015.2 |
| 20260506224633 | 17 | 143 | 8.0 | 9.7 | 0.00 | 0.00 | 0.00 | 49 | 1015.2 |
| 20260506224130 | 17 | 42 | 1.6 | 3.2 | 0.00 | 0.00 | 0.00 | 48 | 1015.2 |
| 20260506223626 | 18 | 49 | 4.8 | 12.9 | 0.00 | 0.00 | 0.00 | 48 | 1015.0 |
| 20260506223122 | 18 | 16 | 3.2 | 6.4 | 0.00 | 0.00 | 0.00 | 47 | 1015.0 |
| 20260506222619 | 17 | 170 | 3.2 | 3.2 | 0.00 | 0.00 | 0.00 | 48 | 1014.9 |
| 20260506222115 | 17 | 157 | 3.2 | 6.4 | 0.00 | 0.00 | 0.00 | 49 | 1014.8 |
| 20260506221613 | 17 | 166 | 11.3 | 14.5 | 0.00 | 0.00 | 0.00 | 47 | 1014.8 |
| 20260506221111 | 18 | 53 | 4.8 | 6.4 | 0.00 | 0.00 | 0.00 | 49 | 1014.8 |
| 20260506220607 | 17 | 75 | 3.2 | 4.8 | 0.00 | 0.00 | 0.00 | 51 | 1014.7 |
| 20260506215559 | 17 | 205 | 8.0 | 11.3 | 0.00 | 0.00 | 0.00 | 48 | 1014.6 |
| 20260506215055 | 17 | 41 | 4.8 | 4.8 | 0.00 | 0.00 | 0.00 | 50 | 1014.5 |
| 20260506214552 | 17 | 128 | 1.6 | 6.4 | 0.00 | 0.00 | 0.00 | 50 | 1014.7 |
| 20260506214049 | 17 | 137 | 3.2 | 4.8 | 0.00 | 0.00 | 0.00 | 49 | 1014.7 |
| 20260506213547 | 18 | 52 | 3.2 | 4.8 | 0.00 | 0.00 | 0.00 | 50 | 1014.8 |
| 20260506213044 | 18 | 154 | 6.4 | 9.7 | 0.00 | 0.00 | 0.00 | 49 | 1014.7 |
| 20260506212541 | 18 | 295 | 3.2 | 6.4 | 0.00 | 0.00 | 0.00 | 48 | 1014.8 |
| 20260506212036 | 17 | 152 | 3.2 | 3.2 | 0.00 | 0.00 | 0.00 | 53 | 1014.8 |
| 20260506211532 | 17 | 15 | 4.8 | 9.7 | 0.00 | 0.00 | 0.00 | 52 | 1015.0 |
| 20260506211030 | 17 | 30 | 6.4 | 11.3 | 0.00 | 0.00 | 0.00 | 51 | 1015.2 |
| 20260506210526 | 16 | 83 | 4.8 | 4.8 | 0.00 | 0.00 | 0.00 | 54 | 1015.0 |
| 20260506210023 | 17 | 41 | 3.2 | 4.8 | 0.00 | 0.00 | 0.00 | 52 | 1015.4 |
| 20260506205520 | 17 | 52 | 3.2 | 4.8 | 0.00 | 0.00 | 0.00 | 53 | 1015.3 |
| 20260506205015 | 17 | 169 | 3.2 | 3.2 | 0.00 | 0.00 | 0.00 | 54 | 1015.3 |
| 20260506204513 | 17 | 65 | 6.4 | 6.4 | 0.00 | 0.00 | 0.00 | 52 | 1015.4 |
| 20260506204010 | 17 | 120 | 1.6 | 1.6 | 0.00 | 0.00 | 0.00 | 53 | 1015.4 |
| 20260506203508 | 17 | 284 | 6.4 | 11.3 | 0.00 | 0.00 | 0.00 | 52 | 1015.5 |
| 20260506203004 | 18 | 65 | 6.4 | 9.7 | 0.00 | 0.00 | 0.00 | 50 | 1015.5 |
| 20260506202502 | 18 | 344 | 3.2 | 6.4 | 0.00 | 0.00 | 0.00 | 53 | 1015.3 |
| 20260506201957 | 17 | 62 | 8.0 | 12.9 | 0.00 | 0.00 | 0.00 | 51 | 1015.5 |
| 20260506201455 | 17 | 148 | 6.4 | 6.4 | 0.00 | 0.00 | 0.00 | 52 | 1015.6 |
| 20260506200952 | 17 | 110 | 1.6 | 3.2 | 0.00 | 0.00 | 0.00 | 53 | 1015.5 |
| 20260506200449 | 17 | 159 | 3.2 | 3.2 | 0.00 | 0.00 | 0.00 | 53 | 1015.7 |
| 20260506195945 | 17 | 63 | 3.2 | 4.8 | 0.00 | 0.00 | 0.00 | 53 | 1015.7 |
| 20260506195442 | 18 | 170 | 1.6 | 1.6 | 0.00 | 0.00 | 0.00 | 53 | 1015.7 |
| 20260506194938 | 18 | 16 | 1.6 | 3.2 | 0.00 | 0.00 | 0.00 | 54 | 1015.7 |
| 20260506194436 | 17 | 116 | 3.2 | 3.2 | 0.00 | 0.00 | 0.00 | 53 | 1015.7 |
| 20260506193932 | 17 | 47 | 6.4 | 9.7 | 0.00 | 0.00 | 0.00 | 52 | 1015.6 |
| 20260506193430 | 17 | 61 | 3.2 | 3.2 | 0.00 | 0.00 | 0.00 | 53 | 1015.8 |
| 20260506192926 | 17 | 175 | 1.6 | 3.2 | 0.00 | 0.00 | 0.00 | 55 | 1016.0 |
| 20260506192423 | 17 | 27 | 1.6 | 1.6 | 0.00 | 0.00 | 0.00 | 56 | 1016.1 |
| 20260506191920 | 17 | 83 | 0.0 | 1.6 | 0.00 | 0.00 | 0.00 | 54 | 1015.9 |
| 20260506191416 | 16 | 163 | 0.0 | 1.6 | 0.00 | 0.00 | 0.00 | 55 | 1016.2 |
| 20260506190914 | 17 | 58 | 3.2 | 4.8 | 0.00 | 0.00 | 0.00 | 56 | 1016.1 |
| 20260506190410 | 17 | 72 | 1.6 | 3.2 | 0.00 | 0.00 | 0.00 | 56 | 1016.1 |
| 20260506185907 | 17 | 44 | 4.8 | 6.4 | 0.00 | 0.00 | 0.00 | 53 | 1016.0 |
| 20260506185404 | 17 | 171 | 8.0 | 11.3 | 0.00 | 0.00 | 0.00 | 51 | 1016.2 |
| 20260506184901 | 16 | 193 | 0.0 | 1.6 | 0.00 | 0.00 | 0.00 | 57 | 1016.3 |
| 20260506184358 | 17 | 102 | 3.2 | 3.2 | 0.00 | 0.00 | 0.00 | 53 | 1016.5 |
| 20260506183855 | 17 | 13 | 3.2 | 4.8 | 0.00 | 0.00 | 0.00 | 52 | 1016.3 |
| 20260506183350 | 17 | 179 | 8.0 | 12.9 | 0.00 | 0.00 | 0.00 | 54 | 1016.4 |
| 20260506182848 | 16 | 148 | 4.8 | 6.4 | 0.00 | 0.00 | 0.00 | 54 | 1016.4 |
| 20260506182345 | 17 | 183 | 3.2 | 4.8 | 0.00 | 0.00 | 0.00 | 55 | 1016.5 |
| 20260506181842 | 17 | 249 | 4.8 | 9.7 | 0.00 | 0.00 | 0.00 | 53 | 1016.5 |
| 20260506181340 | 17 | 113 | 4.8 | 6.4 | 0.00 | 0.00 | 0.00 | 53 | 1016.6 |
| 20260506180837 | 17 | 108 | 1.6 | 3.2 | 0.00 | 0.00 | 0.00 | 53 | 1016.9 |
| 20260506180333 | 17 | 178 | 1.6 | 1.6 | 0.00 | 0.00 | 0.00 | 53 | 1017.0 |
| 20260506175824 | 16 | 76 | 3.2 | 4.8 | 0.00 | 0.00 | 0.00 | 54 | 1017.0 |
| 20260506175321 | 16 | 351 | 4.8 | 6.4 | 0.00 | 0.00 | 0.00 | 55 | 1017.2 |
| 20260506174818 | 16 | 8 | 6.4 | 9.7 | 0.00 | 0.00 | 0.00 | 55 | 1017.4 |
| 20260506174315 | 16 | 120 | 1.6 | 1.6 | 0.00 | 0.00 | 0.00 | 56 | 1017.4 |
| 20260506173813 | 16 | 97 | 3.2 | 3.2 | 0.00 | 0.00 | 0.00 | 55 | 1017.5 |
| 20260506173310 | 16 | 97 | 6.4 | 9.7 | 0.00 | 0.00 | 0.00 | 53 | 1017.6 |
| 20260506172807 | 16 | 80 | 4.8 | 6.4 | 0.00 | 0.00 | 0.00 | 54 | 1017.7 |
| 20260506172306 | 16 | 36 | 6.4 | 12.9 | 0.00 | 0.00 | 0.00 | 54 | 1018.0 |
| 20260506171800 | 16 | 38 | 3.2 | 4.8 | 0.00 | 0.00 | 0.00 | 60 | 1017.9 |
| 20260506171257 | 15 | 48 | 1.6 | 3.2 | 0.00 | 0.00 | 0.00 | 57 | 1018.2 |
| 20260506170755 | 16 | 234 | 6.4 | 6.4 | 0.00 | 0.00 | 0.00 | 55 | 1018.2 |
| 20260506170251 | 15 | 25 | 8.0 | 14.5 | 0.00 | 0.00 | 0.00 | 55 | 1018.2 |
| 20260506165750 | 15 | 129 | 4.8 | 4.8 | 0.00 | 0.00 | 0.00 | 57 | 1018.1 |
| 20260506165247 | 15 | 353 | 6.4 | 9.7 | 0.00 | 0.00 | 0.00 | 57 | 1018.1 |
| 20260506164743 | 15 | 51 | 3.2 | 6.4 | 0.00 | 0.00 | 0.00 | 58 | 1018.0 |
| 20260506164240 | 15 | 81 | 0.0 | 1.6 | 0.00 | 0.00 | 0.00 | 59 | 1017.9 |
| 20260506163737 | 15 | 115 | 6.4 | 9.7 | 0.00 | 0.00 | 0.00 | 57 | 1017.8 |
| 20260506163231 | 15 | 323 | 1.6 | 3.2 | 0.00 | 0.00 | 0.00 | 59 | 1017.9 |
| 20260506162728 | 14 | 47 | 3.2 | 3.2 | 0.00 | 0.00 | 0.00 | 62 | 1017.9 |
| 20260506162226 | 13 | 120 | 1.6 | 1.6 | 0.00 | 0.00 | 0.00 | 65 | 1017.8 |
| 20260506161723 | 13 | 90 | 3.2 | 4.8 | 0.00 | 0.00 | 0.00 | 64 | 1017.8 |
| 20260506161220 | 13 | 114 | 1.6 | 1.6 | 0.00 | 0.00 | 0.00 | 64 | 1017.7 |
| 20260506160718 | 13 | 128 | 1.6 | 1.6 | 0.00 | 0.00 | 0.00 | 64 | 1017.5 |
| 20260506160214 | 13 | 91 | 0.0 | 1.6 | 0.00 | 0.00 | 0.00 | 64 | 1017.6 |
| 20260506155713 | 12 | 158 | 0.0 | 1.6 | 0.00 | 0.00 | 0.00 | 66 | 1017.6 |
| 20260506155209 | 13 | 46 | 9.7 | 11.3 | 0.00 | 0.00 | 0.00 | 63 | 1017.2 |
| 20260506153312 | 14 | 188 | 1.6 | 1.6 | 0.00 | 0.00 | 0.00 | 64 | 1016.2 |
| 20260506152808 | 14 | 166 | 1.6 | 1.6 | 0.00 | 0.00 | 0.00 | 65 | 1016.4 |
| 20260506152306 | 14 | 169 | 3.2 | 3.2 | 0.00 | 0.00 | 0.00 | 62 | 1016.1 |
| 20260506151804 | 13 | 165 | 1.6 | 3.2 | 0.00 | 0.00 | 0.00 | 65 | 1015.9 |
| 20260506151300 | 13 | 345 | 6.4 | 11.3 | 0.00 | 0.00 | 0.00 | 63 | 1016.4 |
| 20260506150757 | 13 | 198 | 3.2 | 3.2 | 0.00 | 0.00 | 0.00 | 65 | 1016.5 |
| 20260506150303 | 13 | 35 | 3.2 | 6.4 | 0.00 | 0.00 | 0.00 | 65 | 1016.5 |
| 20260506145752 | 12 | 351 | 1.6 | 3.2 | 0.00 | 0.00 | 0.00 | 66 | 1016.6 |
| 20260506145248 | 12 | 152 | 1.6 | 1.6 | 0.00 | 0.00 | 0.00 | 66 | 1016.5 |
| 20260506144745 | 12 | 176 | 4.8 | 6.4 | 0.00 | 0.00 | 0.00 | 66 | 1016.5 |
| 20260506144242 | 12 | 178 | 4.8 | 6.4 | 0.00 | 0.00 | 0.00 | 66 | 1016.2 |
| 20260506143740 | 12 | 200 | 4.8 | 6.4 | 0.00 | 0.00 | 0.00 | 67 | 1016.2 |
| 20260506143237 | 12 | 94 | 1.6 | 3.2 | 0.00 | 0.00 | 0.00 | 68 | 1016.2 |
| 20260506142735 | 12 | 207 | 4.8 | 9.7 | 0.00 | 0.00 | 0.00 | 68 | 1016.2 |
| 20260506142233 | 12 | 168 | 3.2 | 4.8 | 0.00 | 0.00 | 0.00 | 71 | 1016.4 |
| 20260506141731 | 12 | 88 | 3.2 | 3.2 | 0.00 | 0.00 | 0.00 | 72 | 1016.1 |
| 20260506141229 | 11 | 131 | 0.0 | 0.0 | 0.00 | 0.00 | 0.00 | 74 | 1016.3 |
| 20260506140726 | 11 | 118 | 3.2 | 4.8 | 0.00 | 0.00 | 0.00 | 75 | 1016.1 |
| 20260506140223 | 11 | 131 | 3.2 | 4.8 | 0.00 | 0.00 | 0.00 | 75 | 1016.4 |
| 20260506135720 | 11 | 233 | 1.6 | 1.6 | 0.00 | 0.00 | 0.00 | 77 | 1016.3 |
| 20260506135216 | 11 | 156 | 4.8 | 6.4 | 0.00 | 0.00 | 0.00 | 76 | 1016.4 |
| 20260506134713 | 10 | 157 | 3.2 | 9.7 | 0.00 | 0.00 | 0.00 | 76 | 1016.5 |
| 20260506134209 | 10 | 298 | 9.7 | 12.9 | 0.00 | 0.00 | 0.00 | 76 | 1016.6 |
| 20260506133706 | 10 | 320 | 6.4 | 9.7 | 0.00 | 0.00 | 0.00 | 78 | 1016.6 |
| 20260506133203 | 10 | 163 | 3.2 | 4.8 | 0.00 | 0.00 | 0.00 | 78 | 1016.6 |
| 20260506132700 | 10 | 38 | 3.2 | 3.2 | 0.00 | 0.00 | 0.00 | 77 | 1016.7 |
| 20260506132157 | 10 | 43 | 3.2 | 6.4 | 0.00 | 0.00 | 0.00 | 79 | 1016.5 |
| 20260506131655 | 10 | 157 | 4.8 | 4.8 | 0.00 | 0.00 | 0.00 | 79 | 1016.4 |
| 20260506131151 | 10 | 56 | 3.2 | 4.8 | 0.00 | 0.00 | 0.00 | 81 | 1016.4 |
| 20260506130648 | 10 | 151 | 4.8 | 4.8 | 0.00 | 0.00 | 0.00 | 81 | 1016.4 |
| 20260506130145 | 10 | 55 | 8.0 | 11.3 | 0.00 | 0.00 | 0.00 | 82 | 1016.7 |
| 20260506125643 | 10 | 158 | 6.4 | 11.3 | 0.00 | 0.00 | 0.00 | 82 | 1016.6 |
| 20260506125141 | 10 | 159 | 4.8 | 6.4 | 0.00 | 0.00 | 0.00 | 82 | 1016.7 |